Location: Elbart
(49.6135°N, 11.9134°E)
Time: 18:22:01
(UTC+00:00)

Cosmos 1356 Rocket - Pass Details

Date: 09 April 2020
Orbit: 543 x 599 km, 81.2° (Epoch: 03 June)

Event Time Altitude Azimuth Distance (km) Brightness Sun altitude
Exits shadow 20:13:51 50° 94° (E) 764 3.7 -20.4°
Drops below altitude 10° 20:17:54 10° 22° (NNE) 1,921 6.3 -20.9°
Sets 20:20:09 0° 17° (NNE) 2,817 7.3 -21.1°
